Vertical_Velocity
-2 -3 -5 -7 -9 -6 -5 -4 -6 -4 -4 -5 -3 -2 1 -3 1 3 -2 4 17 3 5 -1 8 0 47 23 9 -2 -4 -2 0 3 2 1 2 4 -5 2 3 1 3 1 1 0 -1
-4 -4 -4 -5 -9 -5 -4 -6 -5 -6 -3 -5 -7 -1 6 -3 2 -1 1 -3 2 3 -2 1 -6 10 9 7 1 -1 -8 -3 -1 3 4 4 0 2 6 3 1 5 -1 -1 -1 -0 0
-3 -3 -2 -4 -8 -7 -5 -6 -6 -5 -1 -1 -5 1 -1 1 -2 -2 2 7 -5 2 21 -7 -9 6 -12 19 8 0 -2 3 1 -0 5 2 3 0 7 1 -1 1 -0 1 -0 1 2
-3 -3 -4 -4 -6 -5 -4 -3 -9 -1 -2 2 -3 -4 8 -3 -7 -6 -8 0 -10 3 15 15 9 -6 19 9 -0 2 -1 1 -1 0 -1 -1 1 -1 -3 1 -2 -2 -1 -1 -0 -0 2
-5 -4 -3 -2 -4 -6 -5 -4 -6 -2 -3 -3 7 3 -2 5 -6 -7 -5 -5 -13 1 2 12 -0 23 12 7 5 5 2 3 0 1 3 1 -2 -4 0 -4 -5 -5 1 -1 -4 -2 -2
-1 -2 -3 -2 -3 -4 -5 -3 -6 -2 -1 -5 1 6 5 -5 -0 -3 -2 -1 -10 -2 11 2 14 32 -9 -2 1 -4 1 1 2 2 -0 3 1 4 2 -1 4 5 1 1 -1 -3 -2
1 -0 -2 -3 -2 -4 -5 -4 -3 -6 -2 2 -6 1 -4 11 2 3 -3 -3 -9 -11 -3 2 -3 1 -4 -0 -1 -1 2 1 2 -2 -1 -1 0 -0 -1 1 -2 -1 -1 -1 -1 -0 -1
-2 1 -1 -2 -1 -2 -4 -5 -1 -3 -5 -1 2 -4 2 -4 -2 -0 -10 3 5 -17 -3 -4 -4 2 -0 -2 -0 -1 -2 -3 -2 -2 -1 1 2 1 1 -0 -1 -2 -0 -0 -1 -2 -3
-2 -2 0 -1 -2 -1 -2 -3 -4 -1 -4 -5 0 3 -0 -0 3 -3 1 -2 -0 -7 -3 -9 -4 -6 -4 2 2 -0 -0 -1 -0 2 -4 -5 -4 -4 -3 -3 -2 -2 -2 -1 -3 -6 -7
-2 -3 0 -1 -2 -1 -1 -2 -4 -3 -2 -4 -3 -1 1 2 -7 -12 7 1 -2 -4 -2 -5 -6 -2 1 -5 -6 -1 1 -1 1 2 1 -1 -1 -2 0 -0 -1 -1 -3 -1 -0 -1 -4
-1 -2 -3 -0 -1 -1 -2 -1 -1 -4 -4 0 -4 -1 -4 0 1 -6 -11 -4 1 -0 -7 -3 -0 -1 -5 -2 -1 -7 -4 1 -3 -3 -0 1 -2 -3 -1 -2 -3 -2 -2 -2 -1 -2 -2
-1 -1 -3 -2 1 -2 -2 -1 -1 -1 -2 -2 -1 -1 -4 -4 -1 -2 -9 3 0 -2 -22 -4 -2 -8 -5 -0 1 0 -1 -1 1 -0 -1 -2 0 -0 -2 -2 -1 -0 -3 -3 -2 -2 -2
-0 0 -2 -2 -2 1 -1 -1 -0 0 1 -2 -1 -3 -1 -5 -3 -1 -9 -4 -6 -15 -7 -2 -8 -5 -3 -4 -1 -0 -4 -1 -2 -1 -2 -1 -1 -1 -2 -0 -0 -1 -1 -2 -2 -3 -3
0 -1 2 -2 -2 -0 -0 -1 0 1 1 2 -0 1 2 -3 -0 -0 -4 4 -3 -1 -7 -3 1 2 1 -2 -3 -3 -2 0 -1 -2 0 2 1 -0 -2 -2 -1 -0 -1 -2 -3 -1 -0
-1 -1 2 -1 -1 -0 -0 -0 -0 1 1 1 2 0 -1 -0 -3 2 -7 19 -4 -1 -3 -0 -2 -2 -0 -2 -3 -2 0 -1 -2 -1 -2 -5 -3 -1 -1 -2 -2 -5 -3 -3 -1 -1 -2
-3 -0 -1 2 -2 0 1 -2 -0 -1 1 -0 -1 -0 1 1 -2 0 -0 -2 -5 -3 -3 -4 -2 2 1 2 2 3 1 -1 -1 -2 -2 -3 -2 -2 -2 -2 -1 -2 -2 -2 -2 -3 -3
-3 -1 -1 1 2 -1 1 0 -0 1 -2 0 0 -1 1 2 -0 -1 3 -1 -2 -1 1 -1 -0 2 -1 -1 -2 -3 -3 -4 -2 -2 -1 -2 -2 -3 -3 -3 -2 -1 -0 -0 0 0 -1
-2 -3 -2 0 1 -2 -2 1 1 2 2 -0 1 3 1 2 1 -3 1 2 2 -1 -4 -4 -3 -4 -4 -4 -2 -0 -1 2 0 -3 -1 -2 -1 -1 -2 -2 -2 -3 -3 -2 -3 -3 -3
-3 -2 -2 -0 0 -1 0 -1 1 2 -1 0 0 -2 1 0 1 3 0 -2 3 3 2 0 1 -1 -2 -3 -0 -1 -1 -1 -2 -3 -2 -1 -2 -1 0 0 -0 -2 -3 -3 -4 -3 -4
-2 -4 -1 -2 0 1 -1 0 -0 -0 1 2 -2 -1 1 -0 -1 1 1 5 -3 -3 -0 3 4 1 1 2 1 -0 -0 -1 -2 -0 -1 -3 -2 -1 -1 -3 -3 -3 -2 -2 -2 -2 -1
-2 -3 -1 -0 -3 1 -1 -2 -0 -0 0 1 1 0 -0 1 3 1 1 -1 3 4 2 -0 1 2 2 2 3 3 1 0 -0 -1 -2 -2 -1 -1 -0 -3 -4 -4 -3 -1 -0 -4 -0
-1 -0 1 -1 -1 -2 -0 1 2 -0 -1 2 -1 -1 -2 0 -0 1 -1 0 1 -0 -1 2 4 1 -1 -1 -0 -2 0 0 1 1 1 2 1 -1 -4 -1 1 2 -1 0 -1 -0 4
-3 -2 -2 1 -1 -3 -1 1 -1 0 1 -0 -1 -0 2 1 -1 -1 1 0 0 0 1 -1 -1 -1 3 5 3 1 -0 0 1 0 -0 -0 1 2 3 -1 -1 1 -1 0 1 0 -1
-1 -2 -3 -3 0 -0 -0 -0 -1 0 -1 1 -2 -0 -1 -1 1 1 -1 1 -0 1 0 -0 0 0 -1 -2 -2 -0 -0 -0 0 -0 0 2 0 -2 5 -2 3 -2 -0 -1 2 -3 0
-0 -1 -3 -1 -1 0 -2 -1 1 1 -1 -4 -2 -1 3 1 0 1 2 -2 1 -0 -1 1 -1 -1 0 -0 1 -1 -2 -0 -1 0 -2 -0 0 -1 1 3 2 -6 1 -1 -1 -4 -1
-2 -1 -3 -2 -1 -1 -1 1 1 2 1 2 1 2 -3 1 0 0 -0 0 0 0 0 -2 -1 0 -1 -1 -2 0 1 1 3 2 -3 -3 -1 -2 -1 -3 1 -1 -2 -2 -1 2 2
-1 -2 -3 -2 -3 -3 0 -0 -1 -1 -1 0 3 -1 1 -1 -1 0 -1 -0 -1 0 -1 1 0 -4 -1 1 -0 -2 2 -1 1 -2 2 -2 -2 -3 -6 -3 5 -6 -3 2 -0 0 1
-3 -1 -1 -1 1 0 -2 -2 -4 -1 -2 -0 -3 1 -0 0 -0 3 -0 2 0 0 -0 1 -2 1 -0 -2 -1 -1 2 2 -1 -3 1 -2 -2 5 2 -6 -1 0 1 -1 0 1 -2
1 3 0 -3 -3 -4 -3 -2 -0 -3 -2 2 -3 -4 -4 -0 -5 4 2 3 1 4 4 1 0 -0 -1 0 -1 1 -4 1 -3 7 -6 -5 -11 -2 -1 8 -7 -1 1 -7 -1 2 -1
Height
5765 5755 5744 5731 5717 5700 5682 5666 5654 5645 5635 5623 5611 5598 5591 5587 5584 5581 5579 5576 5575 5577 5579 5584 5594 5603 5614 5627 5640 5651 5660 5671 5684 5696 5708 5718 5727 5735 5743 5751 5757 5763 5768 5774 5779 5783 5788
5766 5757 5746 5734 5721 5704 5687 5670 5658 5650 5639 5628 5616 5606 5596 5590 5586 5586 5585 5584 5583 5584 5589 5593 5599 5607 5620 5634 5644 5652 5662 5672 5683 5694 5705 5715 5724 5733 5742 5749 5756 5762 5766 5771 5776 5780 5784
5768 5759 5749 5737 5725 5710 5694 5677 5665 5656 5645 5634 5623 5614 5605 5597 5593 5591 5591 5591 5591 5594 5600 5601 5611 5619 5629 5639 5647 5655 5663 5671 5681 5691 5702 5711 5721 5731 5739 5745 5752 5758 5764 5768 5772 5777 5781
5772 5762 5753 5742 5730 5717 5701 5686 5673 5662 5653 5642 5632 5624 5616 5608 5603 5598 5599 5601 5602 5605 5607 5611 5615 5624 5638 5646 5652 5658 5664 5671 5680 5691 5700 5709 5718 5727 5735 5744 5749 5755 5760 5764 5768 5773 5776
5775 5766 5757 5747 5736 5724 5710 5695 5682 5671 5661 5652 5643 5633 5626 5619 5614 5610 5611 5611 5613 5615 5619 5623 5627 5636 5646 5652 5657 5663 5668 5674 5681 5690 5699 5708 5717 5726 5734 5741 5747 5752 5758 5762 5766 5769 5772
5778 5770 5761 5751 5742 5732 5719 5705 5691 5680 5672 5662 5652 5644 5636 5630 5625 5622 5620 5620 5624 5629 5632 5634 5640 5651 5655 5660 5663 5666 5672 5679 5685 5692 5700 5709 5716 5723 5730 5737 5745 5750 5755 5758 5762 5766 5768
5783 5775 5767 5757 5747 5738 5728 5716 5702 5690 5682 5673 5664 5654 5645 5641 5636 5630 5633 5634 5641 5641 5644 5648 5649 5657 5660 5664 5667 5671 5675 5681 5687 5695 5702 5709 5716 5722 5728 5734 5740 5745 5750 5753 5757 5760 5763
5787 5779 5771 5763 5753 5745 5735 5725 5713 5701 5691 5684 5676 5667 5659 5649 5644 5639 5643 5651 5652 5655 5657 5658 5662 5667 5670 5671 5674 5677 5681 5687 5690 5695 5702 5709 5714 5721 5726 5732 5737 5743 5746 5749 5752 5755 5758
5790 5783 5776 5769 5759 5751 5743 5733 5723 5713 5702 5692 5686 5679 5671 5666 5656 5653 5658 5661 5660 5664 5668 5668 5669 5673 5676 5678 5680 5683 5686 5688 5692 5697 5703 5709 5715 5720 5726 5731 5736 5739 5743 5746 5749 5750 5752
5795 5788 5780 5774 5766 5757 5750 5742 5733 5723 5714 5704 5695 5689 5684 5678 5675 5670 5667 5668 5669 5672 5674 5677 5679 5681 5682 5684 5687 5689 5691 5695 5696 5699 5703 5708 5714 5719 5724 5729 5732 5735 5739 5741 5743 5744 5746
5799 5793 5785 5778 5772 5764 5756 5749 5742 5733 5724 5716 5707 5698 5693 5688 5685 5682 5679 5675 5676 5678 5680 5684 5683 5684 5686 5689 5691 5693 5696 5698 5700 5703 5707 5710 5714 5719 5722 5726 5729 5733 5736 5738 5740 5741 5742
5802 5796 5790 5782 5776 5770 5762 5755 5749 5742 5735 5726 5719 5711 5703 5697 5695 5692 5688 5685 5684 5687 5685 5687 5688 5688 5687 5688 5691 5693 5698 5701 5703 5706 5708 5712 5715 5720 5724 5726 5729 5732 5734 5736 5736 5737 5737
5805 5799 5793 5787 5780 5774 5767 5760 5754 5749 5743 5737 5729 5722 5714 5707 5703 5701 5699 5694 5696 5696 5694 5694 5692 5691 5691 5693 5694 5696 5700 5703 5706 5707 5711 5714 5717 5720 5723 5725 5728 5729 5731 5732 5734 5733 5733
5806 5801 5796 5790 5784 5778 5772 5765 5759 5754 5749 5745 5740 5733 5727 5719 5712 5708 5710 5708 5706 5702 5699 5700 5700 5699 5699 5699 5700 5702 5704 5706 5708 5711 5712 5715 5718 5720 5723 5725 5727 5728 5729 5730 5730 5729 5729
5807 5802 5798 5794 5788 5782 5776 5769 5764 5759 5754 5750 5746 5741 5736 5731 5724 5719 5719 5720 5713 5710 5708 5706 5704 5705 5706 5706 5707 5707 5709 5711 5713 5715 5718 5719 5720 5721 5723 5725 5727 5727 5728 5728 5726 5725 5724
5807 5803 5798 5795 5791 5785 5780 5774 5767 5762 5758 5754 5750 5746 5743 5739 5734 5729 5729 5725 5719 5716 5716 5715 5714 5712 5710 5710 5710 5711 5713 5714 5716 5717 5718 5720 5721 5722 5723 5724 5725 5725 5726 5726 5724 5724 5722
5806 5803 5799 5795 5792 5789 5783 5777 5772 5766 5761 5758 5754 5750 5747 5743 5739 5736 5736 5731 5727 5723 5721 5720 5719 5718 5718 5717 5715 5715 5716 5717 5717 5719 5720 5721 5722 5724 5724 5724 5724 5725 5724 5724 5724 5724 5723
5803 5801 5799 5795 5792 5790 5786 5780 5775 5770 5765 5761 5757 5753 5750 5746 5744 5739 5738 5735 5732 5729 5727 5726 5725 5723 5723 5722 5722 5722 5721 5721 5721 5722 5722 5723 5724 5725 5726 5726 5727 5727 5727 5726 5726 5726 5724
5801 5799 5796 5793 5791 5789 5786 5783 5777 5773 5768 5764 5761 5757 5754 5751 5747 5744 5740 5738 5734 5733 5732 5730 5729 5728 5728 5728 5728 5727 5727 5727 5727 5727 5728 5728 5729 5728 5728 5729 5728 5727 5726 5725 5724 5723 5723
5797 5796 5794 5791 5789 5787 5785 5782 5779 5775 5770 5767 5764 5761 5757 5754 5750 5748 5745 5741 5738 5735 5734 5732 5732 5731 5731 5731 5731 5730 5730 5730 5729 5729 5729 5730 5729 5729 5729 5728 5727 5725 5724 5722 5721 5720 5719
5792 5791 5789 5788 5786 5783 5782 5781 5778 5775 5772 5769 5766 5762 5758 5755 5752 5750 5748 5747 5744 5740 5737 5734 5732 5732 5732 5732 5731 5731 5731 5730 5730 5729 5728 5727 5726 5725 5725 5725 5724 5723 5721 5720 5718 5716 5715
5785 5785 5784 5783 5781 5780 5778 5777 5776 5774 5771 5768 5765 5763 5760 5757 5754 5751 5749 5745 5745 5743 5741 5738 5736 5733 5731 5730 5730 5730 5729 5729 5728 5728 5727 5726 5725 5723 5721 5720 5719 5718 5716 5715 5713 5712 5710
5778 5778 5777 5776 5775 5774 5772 5772 5771 5770 5768 5766 5764 5761 5759 5757 5754 5753 5750 5748 5745 5743 5742 5740 5738 5735 5733 5732 5729 5727 5726 5726 5724 5724 5723 5722 5721 5721 5719 5715 5714 5714 5712 5709 5708 5706 5705
5770 5771 5771 5769 5767 5767 5766 5765 5765 5765 5764 5763 5761 5759 5757 5755 5752 5750 5748 5746 5745 5742 5740 5739 5738 5737 5736 5733 5729 5727 5725 5724 5722 5721 5719 5718 5716 5716 5716 5713 5712 5709 5706 5705 5703 5700 5698
5760 5761 5762 5762 5760 5759 5759 5759 5759 5758 5758 5758 5756 5753 5751 5751 5748 5746 5744 5742 5741 5740 5738 5736 5735 5733 5732 5730 5729 5727 5726 5724 5721 5719 5717 5714 5713 5712 5711 5710 5708 5703 5703 5702 5699 5696 5693
5747 5749 5751 5752 5752 5751 5750 5750 5750 5750 5749 5749 5749 5747 5746 5745 5743 5742 5740 5738 5735 5734 5734 5733 5731 5730 5728 5726 5725 5725 5722 5720 5719 5717 5713 5711 5710 5708 5704 5704 5703 5699 5699 5696 5693 5692 5688
5736 5737 5739 5740 5741 5742 5741 5741 5740 5740 5739 5738 5738 5738 5737 5736 5736 5734 5734 5733 5731 5728 5727 5725 5725 5725 5724 5722 5719 5719 5717 5714 5714 5713 5710 5707 5704 5702 5698 5695 5699 5694 5690 5689 5687 5687 5682
5723 5726 5727 5728 5729 5730 5730 5730 5730 5729 5727 5728 5727 5726 5727 5726 5726 5726 5725 5724 5723 5721 5721 5721 5718 5715 5716 5714 5714 5712 5712 5709 5707 5705 5702 5701 5697 5694 5691 5689 5689 5687 5685 5682 5679 5675 5672
5711 5713 5714 5715 5716 5716 5716 5715 5715 5715 5714 5714 5715 5716 5716 5716 5715 5715 5716 5716 5716 5714 5711 5710 5710 5708 5707 5706 5706 5704 5704 5703 5700 5700 5696 5695 5691 5687 5683 5683 5678 5676 5675 5671 5668 5665 5662